Weather History for Joplin, MO

Change the Weather History Date:

Monday, April 8, 2013

  Actual Average Record
Temperature  
Mean Temperature 68 °F 56 °F  
Max Temperature 74 °F 68 °F 86 °F (2001)
Min Temperature 61 °F 44 °F 19 °F (2007)
Degree Days  
Heating Degree Days 0 10  
Month to date heating degree days 95 87  
Since 1 July heating degree days 3868 3849  
Cooling Degree Days 3 1  
Month to date cooling degree days 5 8  
Year to date cooling degree days 6 18  
Growing Degree Days 17 (Base 50)    
Moisture  
Dew Point 57 °F    
Average Humidity 71    
Maximum Humidity 84    
Minimum Humidity 57    
Precipitation  
Precipitation 0.00 in 0.13 in 0.93 in (2008)
Month to date precipitation 0.14 0.98  
Year to date precipitation 7.99 8.75  
Snow  
Snow 0.00 in - - ()
Month to date snowfall T  
Snow Depth 0.00 in    
Sea Level Pressure  
Sea Level Pressure 29.72 in    
Wind  
Wind Speed 13 mph (SSE)    
Max Wind Speed 25 mph    
Max Gust Speed 32 mph    
Visibility 10 miles    
Events      
T = Trace of Precipitation, MM = Missing Value Source: NWS Daily Summary

Daily Weather History Graph

Daily Weather History Graph

Search for Another Location

Airport:

Trip Planner

Search our weather history database for the weather conditions in past years. The results will help you decide how hot, cold, wet, or windy it might be!

Date:

Astronomy

Apr. 08, 2013 Rise Set
Actual Time 6:53 AM CDT 7:46 PM CDT
Civil Twilight 6:26 AM CDT 8:13 PM CDT
Nautical Twilight 5:55 AM CDT 8:45 PM CDT
Astronomical Twilight 5:22 AM CDT 9:17 PM CDT
Moon 5:41 AM CDT (4/8) 6:23 PM CDT (4/8)
Length of Visible Light 13h 46m
Length of Day
12h 53m
Waning Crescent, 3% of the Moon is Illuminated
Apr 8
Waning Crescent
Apr 10
New
Apr 18
First Quarter
Apr 25
Full
May 2
Last Quarter

Hourly Weather History & Observations

Time (CDT) Temp. Dew Point Humidity Pressure Visibility Wind Dir Wind Speed Gust Speed Precip Events Conditions
12:53 AM 64.9 °F 54.0 °F 68% 29.73 in 10.0 mi South 15.0 mph - N/A   Overcast
1:53 AM 63.0 °F 54.0 °F 72% 29.73 in 10.0 mi South 13.8 mph - N/A   Clear
2:53 AM 63.0 °F 54.0 °F 72% 29.70 in 10.0 mi South 12.7 mph - N/A   Clear
3:53 AM 63.0 °F 54.0 °F 72% 29.70 in 10.0 mi South 8.1 mph - N/A   Mostly Cloudy
4:53 AM 63.0 °F 54.0 °F 72% 29.71 in 10.0 mi South 8.1 mph - N/A   Mostly Cloudy
5:53 AM 62.6 °F 53.6 °F 72% 29.70 in 10.0 mi South 17.3 mph - N/A   Clear
6:53 AM 61.0 °F 55.0 °F 81% 29.69 in 10.0 mi South 13.8 mph - N/A   Clear
7:53 AM 64.0 °F 55.9 °F 75% 29.71 in 10.0 mi South 17.3 mph 26.5 mph N/A   Clear
8:53 AM 66.9 °F 57.0 °F 70% 29.74 in 10.0 mi South 17.3 mph 25.3 mph N/A   Clear
9:53 AM 66.9 °F 57.0 °F 70% 29.75 in 10.0 mi South 15.0 mph 24.2 mph N/A   Overcast
10:53 AM 68.0 °F 57.0 °F 68% 29.75 in 10.0 mi South 20.7 mph 27.6 mph N/A   Overcast
11:53 AM 68.0 °F 57.0 °F 68% 29.75 in 10.0 mi SSE 18.4 mph 24.2 mph N/A   Overcast
12:53 PM 71.1 °F 57.9 °F 63% 29.73 in 10.0 mi South 18.4 mph 26.5 mph N/A   Overcast
1:53 PM 72.0 °F 57.9 °F 61% 29.71 in 10.0 mi South 16.1 mph 23.0 mph N/A   Mostly Cloudy
2:53 PM 73.0 °F 57.9 °F 59% 29.70 in 10.0 mi South 16.1 mph - N/A   Mostly Cloudy
3:53 PM 73.0 °F 59.0 °F 61% 29.69 in 10.0 mi South 12.7 mph - N/A   Overcast
4:53 PM 70.0 °F 57.9 °F 65% 29.70 in 10.0 mi South 16.1 mph - N/A   Overcast
5:53 PM 68.0 °F 57.0 °F 68% 29.71 in 10.0 mi SSE 8.1 mph - N/A   Overcast
6:53 PM 68.0 °F 57.9 °F 70% 29.71 in 10.0 mi SE 10.4 mph 17.3 mph N/A   Overcast
7:53 PM 66.0 °F 57.9 °F 75% 29.71 in 10.0 mi SE 8.1 mph - N/A   Overcast
8:53 PM 64.9 °F 57.9 °F 78% 29.71 in 10.0 mi SE 8.1 mph - N/A   Mostly Cloudy
9:53 PM 64.9 °F 57.9 °F 78% 29.71 in 10.0 mi SE 10.4 mph - N/A   Partly Cloudy
10:53 PM 64.9 °F 57.9 °F 78% 29.72 in 10.0 mi SE 8.1 mph - N/A   Scattered Clouds
11:53 PM 64.9 °F 57.9 °F 78% 29.72 in 10.0 mi ESE 6.9 mph - N/A   Overcast